User: anonymous   Login
Location: Unspecified
(0.0000°N, 0.0000°E)
Time: 06:41:25
(UTC+00:00)
Language:

Tiros 1 - Orbit

View from above orbital plane
View from above orbital plane
View from above satellite
View from above satellite

Ground track
Ground track

The orbit data is extracted from the following two-line orbital elements,

1 00029U 60002B   14295.46926718  .00000984  00000-0  18111-3 0  3612
2 00029 048.3795 330.2309 0024039 040.6894 319.5808 14.73368960914003
Epoch (UTC): 22 October 2014 11:15:44
Eccentricity: 0.0024039
inclination: 48.3795°
perigee height: 633 km
apogee height: 667 km
right ascension of ascending node: 330.2309°
argument of perigee: 40.6894°
revolutions per day: 14.73368960
mean anomaly at epoch: 319.5808°
orbit number at epoch: 91400

The dashed part of the orbit path shows where the satellite is in the earth's shadow,  

DLR